Find Local Weather

World > North America > United States > Georgia

Uvalda, Georgia Regional Weather

Lat: 32.04N, Lon: 82.51W
Wx Zone: GAZ112
Warning FLW WEATHER ALERT - (More Info. Click Here) Warning
Feedback

Uvalda, GA Regional Weather

Expires:201903251200;;892880
ASUS42 KFFC 251110
RWRGA 
WEATHER ROUNDUP FOR GEORGIA
NATIONAL WEATHER SERVICE PEACHTREE CITY GA
700 AM EDT MON MAR 25 2019

NOTE: "FAIR" INDICATES FEW OR NO CLOUDS BELOW 12,000 FEET WITH NO
SIGNIFICANT WEATHER AND/OR OBSTRUCTIONS TO VISIBILITY. 

* = USE WITH CAUTION. THE STATIONS MARKED WITH AN ASTERISK MAY NOT
REPORT WEATHER SUCH AS PRECIPITATION, FOG, OR THUNDER AND ARE NOT 
QUALITY CONTROLLED BY NWS.

THE REMARK "TC" DENOTES TEMPERATURE READING IN DEGREES CELSIUS.


GAZ099>101-110>166-251200-
SOUTH GEORGIA
  
CITY           SKY/WX    TMP DP  RH WIND       PRES   REMARKS
SAVANNAH       MOCLDY    60  58  92 S6        30.10S                  
VALDOSTA       MOCLDY    50  49  96 CALM      30.11S                  
ALMA           MOCLDY    56  51  84 CALM      30.10R                  
ST SIMONS      FAIR      60  56  86 SE6       30.09F                  
FT STEWART     MOCLDY    54  53  97 MISG      30.08S                  
ALBANY         FAIR      50  47  89 S3        30.11S                  
HUNTER AFB     FAIR      60  58  93 CALM      30.07S                  
MOODY AFB      FAIR      51  51 100 S3        30.09S                  
BRUNSWICK      FAIR      59  57  94 SE6       30.09F                  

  
CITY           SKY/WX    TMP DP  RH WIND       PRES   REMARKS
BAINBRIDGE*      N/A     59  55  88 MISG      30.11R                  
MOULTRIE*      FOG       54  52  94 SW3       30.12R VSB 1/4          
VIDALIA*       MOCLDY    55  52  88 CALM      30.10R                  
WAYCROSS*      MOCLDY    58  53  84 SW6       30.10S                  
DOUGLAS*       FAIR      53  52  97 CALM      30.12S                  
$$
  

SKY/WX - Weather  TMP - Temperature  DP - Dew Point  RH - Relative Humidity
WIND - Wind Direction/Speed PRES - Barometric Pressure VSB - Visibility
WCI - Wind Chill Index E13G22 Wind - East Wind 13 mph/Gusts of 22 mph